User: anonymous   Login
Location: UBC Liquid-Mirror Observatory
(49.2876°N, 122.5728°W)
Time: 13:02:51
(UTC-08:00)
Language:

Cosmos 1315 - Orbit

View from above orbital plane
View from above orbital plane
View from above satellite
View from above satellite

Ground track
Ground track

The orbit data is extracted from the following two-line orbital elements,

1 12903U 81103A   14327.49806743  .00047409  00000-0  68224-3 0  3405
2 12903 081.1306 313.6588 0006265 096.3014 054.2535 15.55828150815000
Epoch (UTC): 23 November 2014 11:57:13
Eccentricity: 0.0006265
inclination: 81.1306°
perigee height: 395 km
apogee height: 404 km
right ascension of ascending node: 313.6588°
argument of perigee: 96.3014°
revolutions per day: 15.55828150
mean anomaly at epoch: 54.2535°
orbit number at epoch: 81500

The dashed part of the orbit path shows where the satellite is in the earth's shadow,  

DLR